| time (UTC) | temp F | wind direction | speed knots | gust knots | rain 1hr in | rain 24hr in | rain mn in | humidity % | barometer mb |
| 20260506045040 | 55 | 180 | 3.5 | 9.6 | 0.00 | 0.00 | 0.00 | 84 | 1006.5 |
| 20260506044538 | 56 | 107 | 3.5 | 9.6 | 0.00 | 0.00 | 0.00 | 82 | 1006.4 |
| 20260506044035 | 54 | 6 | 1.7 | 8.7 | 0.00 | 0.00 | 0.00 | 85 | 1006.5 |
| 20260506043532 | 55 | 95 | 3.5 | 6.1 | 0.00 | 0.00 | 0.00 | 84 | 1006.4 |
| 20260506043030 | 55 | 31 | 2.6 | 5.2 | 0.00 | 0.00 | 0.00 | 83 | 1006.6 |
| 20260506042529 | 55 | 94 | 2.6 | 11.3 | 0.00 | 0.00 | 0.00 | 85 | 1006.7 |
| 20260506042027 | 54 | 342 | 2.6 | 4.3 | 0.00 | 0.00 | 0.00 | 85 | 1006.7 |
| 20260506041525 | 55 | 33 | 3.5 | 8.7 | 0.00 | 0.00 | 0.00 | 84 | 1006.4 |
| 20260506041022 | 55 | 58 | 2.6 | 4.3 | 0.00 | 0.00 | 0.00 | 84 | 1006.6 |
| 20260506040520 | 56 | 92 | 4.3 | 9.6 | 0.00 | 0.00 | 0.00 | 82 | 1006.4 |
| 20260506040015 | 56 | 136 | 3.5 | 10.4 | 0.00 | 0.00 | 0.00 | 83 | 1006.5 |
| 20260506035512 | 55 | 66 | 1.7 | 3.5 | 0.00 | 0.00 | 0.00 | 83 | 1006.6 |
| 20260506035009 | 55 | 103 | 2.6 | 6.1 | 0.00 | 0.00 | 0.00 | 85 | 1006.2 |
| 20260506034507 | 56 | 84 | 3.5 | 4.3 | 0.00 | 0.00 | 0.00 | 82 | 1006.5 |
| 20260506034004 | 56 | 62 | 3.5 | 4.3 | 0.00 | 0.00 | 0.00 | 82 | 1006.3 |
| 20260506033501 | 56 | 193 | 4.3 | 13.0 | 0.00 | 0.00 | 0.00 | 81 | 1006.6 |
| 20260506032957 | 56 | 20 | 3.5 | 5.2 | 0.00 | 0.00 | 0.00 | 82 | 1006.7 |
| 20260506032455 | 55 | 323 | 3.5 | 4.3 | 0.00 | 0.00 | 0.00 | 83 | 1006.6 |
| 20260506031951 | 56 | 99 | 2.6 | 5.2 | 0.00 | 0.00 | 0.00 | 82 | 1006.6 |
| 20260506031449 | 56 | 290 | 0.9 | 7.0 | 0.00 | 0.00 | 0.00 | 81 | 1006.4 |
| 20260506030946 | 57 | 357 | 3.5 | 5.2 | 0.00 | 0.00 | 0.00 | 81 | 1006.4 |
| 20260506030444 | 56 | 53 | 0.0 | 2.6 | 0.00 | 0.00 | 0.00 | 82 | 1006.4 |
| 20260506025941 | 56 | 0 | 0.9 | 4.3 | 0.00 | 0.00 | 0.00 | 81 | 1006.2 |
| 20260506025437 | 56 | 298 | 1.7 | 7.0 | 0.00 | 0.00 | 0.00 | 81 | 1006.8 |
| 20260506024934 | 56 | 300 | 3.5 | 6.1 | 0.00 | 0.00 | 0.00 | 80 | 1006.9 |
| 20260506024431 | 57 | 96 | 0.0 | 5.2 | 0.00 | 0.00 | 0.00 | 80 | 1006.9 |
| 20260506023927 | 57 | 108 | 3.5 | 7.0 | 0.00 | 0.00 | 0.00 | 80 | 1006.8 |
| 20260506023424 | 58 | 6 | 3.5 | 4.3 | 0.00 | 0.00 | 0.00 | 79 | 1006.4 |
| 20260506022920 | 58 | 36 | 2.6 | 4.3 | 0.00 | 0.00 | 0.00 | 78 | 1006.6 |
| 20260506022418 | 58 | 146 | 1.7 | 3.5 | 0.00 | 0.00 | 0.00 | 78 | 1006.6 |
| 20260506021916 | 59 | 186 | 2.6 | 6.1 | 0.00 | 0.00 | 0.00 | 77 | 1006.7 |
| 20260506021413 | 58 | 12 | 1.7 | 3.5 | 0.00 | 0.00 | 0.00 | 78 | 1006.7 |
| 20260506020910 | 58 | 230 | 2.6 | 7.8 | 0.00 | 0.00 | 0.00 | 78 | 1006.9 |
| 20260506020408 | 58 | 272 | 1.7 | 5.2 | 0.00 | 0.00 | 0.00 | 77 | 1007.0 |
| 20260506015905 | 58 | 296 | 0.9 | 6.1 | 0.00 | 0.00 | 0.00 | 78 | 1006.9 |
| 20260506015402 | 58 | 263 | 3.5 | 7.8 | 0.00 | 0.00 | 0.00 | 79 | 1006.6 |
| 20260506014859 | 57 | 258 | 1.7 | 6.1 | 0.00 | 0.00 | 0.00 | 81 | 1006.6 |
| 20260506014356 | 56 | 336 | 4.3 | 6.1 | 0.00 | 0.00 | 0.00 | 82 | 1006.7 |
| 20260506013852 | 56 | 300 | 1.7 | 3.5 | 0.00 | 0.00 | 0.00 | 82 | 1006.6 |
| 20260506013350 | 56 | 2 | 0.9 | 3.5 | 0.00 | 0.00 | 0.00 | 82 | 1006.8 |
| 20260506012846 | 56 | 253 | 1.7 | 11.3 | 0.00 | 0.00 | 0.00 | 81 | 1006.6 |
| 20260506012343 | 57 | 201 | 2.6 | 7.0 | 0.00 | 0.00 | 0.00 | 80 | 1006.6 |
| 20260506011840 | 56 | 100 | 3.5 | 8.7 | 0.00 | 0.00 | 0.00 | 80 | 1006.5 |
| 20260506011337 | 56 | 96 | 2.6 | 2.6 | 0.00 | 0.00 | 0.00 | 81 | 1006.6 |
| 20260506010834 | 56 | 129 | 0.0 | 1.7 | 0.00 | 0.00 | 0.00 | 81 | 1006.4 |
| 20260506010333 | 56 | 359 | 0.0 | 2.6 | 0.00 | 0.00 | 0.00 | 80 | 1005.9 |
| 20260506005829 | 57 | 123 | 0.9 | 2.6 | 0.00 | 0.00 | 0.00 | 79 | 1005.7 |
| 20260506005326 | 58 | 151 | 1.7 | 2.6 | 0.00 | 0.00 | 0.00 | 78 | 1005.5 |
| 20260506004822 | 58 | 161 | 1.7 | 3.5 | 0.00 | 0.00 | 0.00 | 76 | 1005.8 |
| 20260506004320 | 59 | 125 | 1.7 | 6.1 | 0.00 | 0.00 | 0.00 | 75 | 1006.0 |
| 20260506003815 | 58 | 155 | 1.7 | 7.0 | 0.00 | 0.00 | 0.00 | 76 | 1006.2 |
| 20260506003312 | 59 | 94 | 1.7 | 6.1 | 0.00 | 0.00 | 0.00 | 75 | 1006.3 |
| 20260506002808 | 58 | 206 | 3.5 | 9.6 | 0.00 | 0.00 | 0.00 | 76 | 1006.3 |
| 20260506002306 | 57 | 291 | 3.5 | 4.3 | 0.00 | 0.00 | 0.00 | 79 | 1006.2 |
| 20260506001801 | 57 | 147 | 2.6 | 6.1 | 0.00 | 0.00 | 0.00 | 79 | 1006.1 |
| 20260506001258 | 57 | 150 | 1.7 | 4.3 | 0.00 | 0.00 | 0.00 | 78 | 1006.2 |
| 20260506000755 | 56 | 125 | 1.7 | 2.6 | 0.00 | 0.00 | 0.00 | 78 | 1006.1 |
| 20260506000254 | 57 | 128 | 2.6 | 5.2 | 0.00 | 0.00 | 0.00 | 78 | 1005.9 |
| 20260505235749 | 57 | 355 | 1.7 | 5.2 | 0.00 | 0.00 | 0.00 | 78 | 1006.0 |
| 20260505235247 | 57 | 187 | 2.6 | 9.6 | 0.00 | 0.00 | 0.00 | 77 | 1005.5 |
| 20260505234744 | 57 | 144 | 6.1 | 11.3 | 0.00 | 0.00 | 0.00 | 76 | 1006.2 |
| 20260505234241 | 59 | 256 | 3.5 | 15.6 | 0.00 | 0.00 | 0.00 | 73 | 1007.4 |
| 20260505233737 | 59 | 331 | 5.2 | 10.4 | 0.00 | 0.00 | 0.00 | 73 | 1004.7 |
| 20260505233236 | 59 | 248 | 7.0 | 17.4 | 0.00 | 0.00 | 0.00 | 72 | 1004.0 |
| 20260505232733 | 60 | 194 | 4.3 | 21.7 | 0.00 | 0.00 | 0.00 | 72 | 1003.8 |
| 20260505232230 | 59 | 182 | 4.3 | 20.0 | 0.00 | 0.00 | 0.00 | 71 | 1003.5 |
| 20260505231726 | 60 | 261 | 7.8 | 21.7 | 0.00 | 0.00 | 0.00 | 72 | 1003.2 |
| 20260505231226 | 59 | 250 | 3.5 | 7.8 | 0.00 | 0.00 | 0.00 | 73 | 1003.9 |
| 20260505230723 | 59 | 159 | 3.5 | 7.8 | 0.00 | 0.00 | 0.00 | 73 | 1003.6 |
| 20260505230220 | 60 | 185 | 6.1 | 11.3 | 0.00 | 0.00 | 0.00 | 71 | 1003.4 |
| 20260505225716 | 60 | 258 | 3.5 | 8.7 | 0.00 | 0.00 | 0.00 | 71 | 1003.6 |
| 20260505225213 | 60 | 23 | 2.6 | 6.1 | 0.00 | 0.00 | 0.00 | 71 | 1003.6 |
| 20260505224709 | 60 | 197 | 2.6 | 11.3 | 0.00 | 0.00 | 0.00 | 70 | 1003.3 |
| 20260505224207 | 60 | 262 | 2.6 | 9.6 | 0.00 | 0.00 | 0.00 | 72 | 1003.5 |
| 20260505223704 | 60 | 262 | 2.6 | 5.2 | 0.00 | 0.00 | 0.00 | 71 | 1003.4 |
| 20260505223200 | 60 | 261 | 2.6 | 13.0 | 0.00 | 0.00 | 0.00 | 71 | 1003.5 |
| 20260505222656 | 61 | 211 | 4.3 | 13.0 | 0.00 | 0.00 | 0.00 | 69 | 1003.3 |
| 20260505222152 | 61 | 182 | 5.2 | 11.3 | 0.00 | 0.00 | 0.00 | 70 | 1003.1 |
| 20260505221650 | 61 | 169 | 5.2 | 13.0 | 0.00 | 0.00 | 0.00 | 69 | 1003.3 |
| 20260505221146 | 61 | 164 | 4.3 | 13.9 | 0.00 | 0.00 | 0.00 | 70 | 1002.9 |
| 20260505220643 | 62 | 254 | 3.5 | 14.8 | 0.00 | 0.00 | 0.00 | 69 | 1003.1 |
| 20260505220141 | 62 | 23 | 3.5 | 11.3 | 0.00 | 0.00 | 0.00 | 67 | 1003.2 |
| 20260505215638 | 63 | 186 | 7.8 | 23.5 | 0.00 | 0.00 | 0.00 | 67 | 1003.2 |
| 20260505215136 | 63 | 124 | 12.2 | 14.8 | 0.00 | 0.00 | 0.00 | 65 | 1003.3 |
| 20260505214634 | 64 | 238 | 7.8 | 13.0 | 0.00 | 0.00 | 0.00 | 64 | 1003.3 |
| 20260505214131 | 65 | 275 | 11.3 | 13.9 | 0.00 | 0.00 | 0.00 | 64 | 1003.5 |
| 20260505213629 | 65 | 204 | 4.3 | 18.2 | 0.00 | 0.00 | 0.00 | 63 | 1003.0 |
| 20260505213125 | 65 | 300 | 5.2 | 13.9 | 0.00 | 0.00 | 0.00 | 63 | 1003.0 |
| 20260505212621 | 65 | 223 | 7.8 | 13.9 | 0.00 | 0.00 | 0.00 | 64 | 1003.4 |
| 20260505212119 | 65 | 161 | 5.2 | 16.5 | 0.00 | 0.00 | 0.00 | 63 | 1003.3 |
| 20260505211615 | 66 | 170 | 2.6 | 7.0 | 0.00 | 0.00 | 0.00 | 64 | 1003.3 |
| 20260505211113 | 65 | 269 | 2.6 | 11.3 | 0.00 | 0.00 | 0.00 | 64 | 1003.1 |
| 20260505210609 | 65 | 223 | 4.3 | 12.2 | 0.00 | 0.00 | 0.00 | 64 | 1003.2 |
| 20260505210106 | 65 | 136 | 3.5 | 7.8 | 0.00 | 0.00 | 0.00 | 64 | 1003.1 |
| 20260505205604 | 65 | 207 | 10.4 | 14.8 | 0.00 | 0.00 | 0.00 | 63 | 1003.1 |
| 20260505205101 | 65 | 205 | 5.2 | 12.2 | 0.00 | 0.00 | 0.00 | 64 | 1003.2 |
| 20260505204558 | 65 | 191 | 4.3 | 15.6 | 0.00 | 0.00 | 0.00 | 65 | 1003.4 |
| 20260505204056 | 66 | 123 | 3.5 | 11.3 | 0.00 | 0.00 | 0.00 | 65 | 1003.5 |
| 20260505203552 | 65 | 198 | 6.1 | 13.0 | 0.00 | 0.00 | 0.00 | 65 | 1003.4 |
| 20260505203050 | 65 | 221 | 4.3 | 11.3 | 0.00 | 0.00 | 0.00 | 65 | 1003.3 |
| 20260505202545 | 66 | 304 | 1.7 | 8.7 | 0.00 | 0.00 | 0.00 | 64 | 1003.4 |
| 20260505202041 | 66 | 81 | 2.6 | 10.4 | 0.00 | 0.00 | 0.00 | 64 | 1003.3 |
| 20260505201538 | 66 | 228 | 4.3 | 14.8 | 0.00 | 0.00 | 0.00 | 66 | 1003.2 |
| 20260505201036 | 66 | 158 | 8.7 | 15.6 | 0.00 | 0.00 | 0.00 | 64 | 1003.4 |
| 20260505200534 | 66 | 250 | 6.1 | 17.4 | 0.00 | 0.00 | 0.00 | 64 | 1003.3 |
| 20260505200030 | 67 | 250 | 4.3 | 8.7 | 0.00 | 0.00 | 0.00 | 63 | 1003.7 |
| 20260505195526 | 67 | 115 | 2.6 | 11.3 | 0.00 | 0.00 | 0.00 | 69 | 1003.3 |
| 20260505195024 | 67 | 287 | 6.1 | 12.2 | 0.00 | 0.00 | 0.00 | 63 | 1003.6 |
| 20260505194521 | 68 | 333 | 3.5 | 9.6 | 0.00 | 0.00 | 0.00 | 62 | 1003.6 |
| 20260505194016 | 67 | 166 | 2.6 | 13.0 | 0.00 | 0.00 | 0.00 | 63 | 1003.9 |
| 20260505193514 | 67 | 53 | 2.6 | 12.2 | 0.00 | 0.00 | 0.00 | 63 | 1003.7 |
| 20260505193011 | 68 | 256 | 3.5 | 9.6 | 0.00 | 0.00 | 0.00 | 62 | 1004.0 |
| 20260505192509 | 68 | 193 | 0.0 | 16.5 | 0.00 | 0.00 | 0.00 | 62 | 1004.3 |
| 20260505192007 | 67 | 326 | 2.6 | 6.1 | 0.00 | 0.00 | 0.00 | 62 | 1004.0 |
| 20260505191505 | 67 | 236 | 2.6 | 14.8 | 0.00 | 0.00 | 0.00 | 62 | 1004.0 |
| 20260505191003 | 68 | 239 | 3.5 | 7.8 | 0.00 | 0.00 | 0.00 | 63 | 1004.3 |
| 20260505190457 | 66 | 135 | 3.5 | 11.3 | 0.00 | 0.00 | 0.00 | 64 | 1004.3 |
| 20260505185952 | 67 | 121 | 4.3 | 18.2 | 0.00 | 0.00 | 0.00 | 63 | 1004.5 |
| 20260505185450 | 67 | 142 | 3.5 | 11.3 | 0.00 | 0.00 | 0.00 | 63 | 1004.1 |
| 20260505184946 | 67 | 332 | 2.6 | 19.1 | 0.00 | 0.00 | 0.00 | 63 | 1004.6 |
| 20260505184443 | 67 | 164 | 3.5 | 10.4 | 0.00 | 0.00 | 0.00 | 63 | 1004.0 |
| 20260505183939 | 67 | 239 | 5.2 | 8.7 | 0.00 | 0.00 | 0.00 | 63 | 1003.9 |
| 20260505183437 | 68 | 336 | 4.3 | 13.9 | 0.00 | 0.00 | 0.00 | 62 | 1004.0 |
| 20260505182933 | 68 | 215 | 1.7 | 9.6 | 0.00 | 0.00 | 0.00 | 62 | 1004.1 |
| 20260505182431 | 68 | 65 | 5.2 | 10.4 | 0.00 | 0.00 | 0.00 | 63 | 1004.1 |
| 20260505181926 | 67 | 135 | 4.3 | 13.9 | 0.00 | 0.00 | 0.00 | 62 | 1004.0 |
| 20260505181424 | 67 | 183 | 1.7 | 18.2 | 0.00 | 0.00 | 0.00 | 63 | 1004.3 |
| 20260505180921 | 67 | 215 | 2.6 | 13.0 | 0.00 | 0.00 | 0.00 | 63 | 1004.5 |
| 20260505180417 | 68 | 136 | 6.1 | 9.6 | 0.00 | 0.00 | 0.00 | 60 | 1004.3 |
| 20260505175914 | 69 | 213 | 2.6 | 7.8 | 0.00 | 0.00 | 0.00 | 58 | 1004.6 |
| 20260505175410 | 69 | 328 | 4.3 | 6.1 | 0.00 | 0.00 | 0.00 | 58 | 1004.6 |
| 20260505174906 | 68 | 102 | 0.0 | 12.2 | 0.00 | 0.00 | 0.00 | 61 | 1004.6 |
| 20260505174404 | 68 | 316 | 11.3 | 11.3 | 0.00 | 0.00 | 0.00 | 61 | 1004.8 |
| 20260505173900 | 70 | 44 | 1.7 | 10.4 | 0.00 | 0.00 | 0.00 | 57 | 1004.6 |
| 20260505173356 | 69 | 49 | 1.7 | 9.6 | 0.00 | 0.00 | 0.00 | 58 | 1004.4 |
| 20260505172854 | 68 | 278 | 4.3 | 12.2 | 0.00 | 0.00 | 0.00 | 58 | 1004.5 |
| 20260505172352 | 69 | 246 | 6.1 | 10.4 | 0.00 | 0.00 | 0.00 | 59 | 1004.7 |
| 20260505171851 | 69 | 271 | 3.5 | 12.2 | 0.00 | 0.00 | 0.00 | 59 | 1004.9 |
| 20260505171348 | 69 | 288 | 6.1 | 14.8 | 0.00 | 0.00 | 0.00 | 58 | 1004.8 |
| 20260505170844 | 68 | 267 | 3.5 | 8.7 | 0.00 | 0.00 | 0.00 | 62 | 1005.1 |
| 20260505170342 | 68 | 195 | 6.1 | 12.2 | 0.00 | 0.00 | 0.00 | 60 | 1004.9 |
| 20260505165837 | 67 | 0 | 3.5 | 15.6 | 0.00 | 0.00 | 0.00 | 61 | 1005.2 |
| 20260505165333 | 67 | 250 | 3.5 | 10.4 | 0.00 | 0.00 | 0.00 | 63 | 1005.1 |
| 20260505164829 | 66 | 86 | 1.7 | 9.6 | 0.00 | 0.00 | 0.00 | 63 | 1005.0 |
| 20260505164325 | 66 | 173 | 1.7 | 11.3 | 0.00 | 0.00 | 0.00 | 62 | 1005.4 |
| 20260505163824 | 65 | 131 | 2.6 | 7.8 | 0.00 | 0.00 | 0.00 | 63 | 1005.2 |
| 20260505163322 | 64 | 257 | 15.6 | 15.6 | 0.00 | 0.00 | 0.00 | 66 | 1005.3 |
| 20260505162820 | 64 | 113 | 6.1 | 8.7 | 0.00 | 0.00 | 0.00 | 65 | 1005.9 |
| 20260505162316 | 62 | 315 | 4.3 | 6.1 | 0.00 | 0.00 | 0.00 | 68 | 1006.1 |
| 20260505161813 | 61 | 175 | 3.5 | 7.8 | 0.00 | 0.00 | 0.00 | 70 | 1006.1 |
| 20260505161311 | 62 | 138 | 2.6 | 7.0 | 0.00 | 0.00 | 0.00 | 70 | 1006.5 |
| 20260505160808 | 61 | 202 | 0.0 | 8.7 | 0.00 | 0.00 | 0.00 | 72 | 1006.7 |
| 20260505160306 | 61 | 317 | 1.7 | 4.3 | 0.00 | 0.00 | 0.00 | 70 | 1006.4 |
| 20260505153244 | 69 | 273 | 3.5 | 4.3 | 0.00 | 0.00 | 0.00 | 58 | 1005.4 |
| 20260505152741 | 68 | 168 | 2.6 | 6.1 | 0.00 | 0.00 | 0.00 | 60 | 1005.5 |
| 20260505152237 | 68 | 175 | 3.5 | 10.4 | 0.00 | 0.00 | 0.00 | 57 | 1005.8 |
| 20260505151732 | 68 | 317 | 3.5 | 9.6 | 0.00 | 0.00 | 0.00 | 56 | 1005.8 |
| 20260505151230 | 66 | 272 | 3.5 | 13.0 | 0.00 | 0.00 | 0.00 | 60 | 1005.7 |
| 20260505150726 | 64 | 173 | 7.0 | 16.5 | 0.00 | 0.00 | 0.00 | 62 | 1005.7 |
| 20260505150223 | 65 | 186 | 3.5 | 8.7 | 0.00 | 0.00 | 0.00 | 64 | 1006.0 |
| 20260505140651 | 64 | 246 | 2.6 | 8.7 | 0.00 | 0.00 | 0.00 | 62 | 1006.0 |
| 20260505140148 | 64 | 272 | 3.5 | 20.9 | 0.00 | 0.00 | 0.00 | 64 | 1006.2 |
| 20260505130112 | 65 | 298 | 6.1 | 10.4 | 0.00 | 0.00 | 0.00 | 56 | 1006.2 |
| 20260505124601 | 64 | 268 | 2.6 | 11.3 | 0.00 | 0.00 | 0.00 | 58 | 1006.4 |
| 20260505124058 | 64 | 258 | 5.2 | 6.1 | 0.00 | 0.00 | 0.00 | 56 | 1006.2 |
| 20260505123554 | 64 | 233 | 6.1 | 8.7 | 0.00 | 0.00 | 0.00 | 57 | 1006.4 |
| 20260505123050 | 64 | 251 | 1.7 | 8.7 | 0.00 | 0.00 | 0.00 | 57 | 1006.5 |
| 20260505122547 | 64 | 29 | 7.0 | 11.3 | 0.00 | 0.00 | 0.00 | 57 | 1006.4 |
| 20260505122045 | 63 | 162 | 6.1 | 13.9 | 0.00 | 0.00 | 0.00 | 57 | 1006.3 |
| 20260505121541 | 62 | 338 | 3.5 | 9.6 | 0.00 | 0.00 | 0.00 | 57 | 1006.5 |
| 20260505121038 | 62 | 238 | 7.8 | 9.6 | 0.00 | 0.00 | 0.00 | 58 | 1006.6 |
| 20260505120534 | 62 | 141 | 6.1 | 13.9 | 0.00 | 0.00 | 0.00 | 57 | 1006.6 |
| 20260505120030 | 62 | 309 | 3.5 | 10.4 | 0.00 | 0.00 | 0.00 | 58 | 1006.6 |
| 20260505115524 | 62 | 202 | 0.9 | 7.8 | 0.00 | 0.00 | 0.00 | 60 | 1006.8 |
| 20260505115022 | 62 | 186 | 2.6 | 9.6 | 0.00 | 0.00 | 0.00 | 59 | 1006.9 |
| 20260505114519 | 62 | 237 | 5.2 | 12.2 | 0.00 | 0.00 | 0.00 | 59 | 1006.8 |
| 20260505114015 | 62 | 207 | 3.5 | 11.3 | 0.00 | 0.00 | 0.00 | 57 | 1006.7 |
| 20260505113512 | 62 | 260 | 1.7 | 7.0 | 0.00 | 0.00 | 0.00 | 57 | 1006.6 |
| 20260505113009 | 62 | 281 | 5.2 | 11.3 | 0.00 | 0.00 | 0.00 | 58 | 1006.6 |
| 20260505112505 | 62 | 304 | 0.0 | 7.8 | 0.00 | 0.00 | 0.00 | 57 | 1006.7 |
| 20260505112003 | 62 | 299 | 0.9 | 8.7 | 0.00 | 0.00 | 0.00 | 57 | 1006.7 |
| 20260505111456 | 62 | 96 | 2.6 | 5.2 | 0.00 | 0.00 | 0.00 | 57 | 1006.4 |
| 20260505110953 | 62 | 159 | 2.6 | 11.3 | 0.00 | 0.00 | 0.00 | 57 | 1006.6 |
| 20260505110449 | 62 | 336 | 3.5 | 7.8 | 0.00 | 0.00 | 0.00 | 58 | 1006.4 |
| 20260505101920 | 57 | 188 | 3.5 | 7.8 | 0.00 | 0.00 | 0.00 | 66 | 1006.6 |
| 20260505101415 | 56 | 122 | 3.5 | 4.3 | 0.00 | 0.00 | 0.00 | 70 | 1006.6 |
| 20260505100911 | 56 | 245 | 1.7 | 3.5 | 0.00 | 0.00 | 0.00 | 70 | 1006.4 |
| 20260505100408 | 56 | 133 | 2.6 | 7.8 | 0.00 | 0.00 | 0.00 | 69 | 1006.4 |
| 20260505095903 | 55 | 134 | 2.6 | 3.5 | 0.00 | 0.00 | 0.00 | 72 | 1006.5 |
| 20260505095401 | 56 | 129 | 1.7 | 3.5 | 0.00 | 0.00 | 0.00 | 70 | 1006.4 |
| 20260505094857 | 56 | 118 | 1.7 | 7.8 | 0.00 | 0.00 | 0.00 | 68 | 1006.2 |
| 20260505094354 | 54 | 159 | 3.5 | 5.2 | 0.00 | 0.00 | 0.00 | 72 | 1006.4 |
| 20260505093849 | 54 | 165 | 1.7 | 4.3 | 0.00 | 0.00 | 0.00 | 73 | 1006.4 |
| 20260505093347 | 54 | 177 | 1.7 | 4.3 | 0.00 | 0.00 | 0.00 | 71 | 1006.4 |
| 20260505092844 | 54 | 119 | 0.0 | 2.6 | 0.00 | 0.00 | 0.00 | 73 | 1006.4 |
| 20260505092343 | 54 | 161 | 1.7 | 3.5 | 0.00 | 0.00 | 0.00 | 73 | 1006.4 |
| 20260505091839 | 55 | 143 | 1.7 | 5.2 | 0.00 | 0.00 | 0.00 | 70 | 1006.4 |
| 20260505091337 | 54 | 155 | 2.6 | 3.5 | 0.00 | 0.00 | 0.00 | 73 | 1006.4 |
| 20260505090835 | 55 | 149 | 2.6 | 3.5 | 0.00 | 0.00 | 0.00 | 70 | 1006.4 |
| 20260505090333 | 54 | 173 | 2.6 | 7.8 | 0.00 | 0.00 | 0.00 | 69 | 1006.2 |
| 20260505085830 | 55 | 99 | 2.6 | 4.3 | 0.00 | 0.00 | 0.00 | 68 | 1006.5 |
| 20260505085328 | 56 | 149 | 3.5 | 4.3 | 0.00 | 0.00 | 0.00 | 66 | 1006.4 |
| 20260505084826 | 57 | 166 | 2.6 | 7.0 | 0.00 | 0.00 | 0.00 | 65 | 1006.4 |
| 20260505084324 | 58 | 34 | 0.0 | 9.6 | 0.00 | 0.00 | 0.00 | 63 | 1006.2 |
| 20260505083821 | 57 | 189 | 3.5 | 7.8 | 0.00 | 0.00 | 0.00 | 64 | 1006.2 |
| 20260505083318 | 57 | 224 | 1.7 | 4.3 | 0.00 | 0.00 | 0.00 | 63 | 1006.3 |
| 20260505082815 | 58 | 200 | 3.5 | 10.4 | 0.00 | 0.00 | 0.00 | 63 | 1006.1 |
| 20260505082311 | 57 | 160 | 4.3 | 5.2 | 0.00 | 0.00 | 0.00 | 64 | 1006.3 |
| 20260505081807 | 57 | 211 | 3.5 | 7.8 | 0.00 | 0.00 | 0.00 | 63 | 1006.5 |
| 20260505081304 | 57 | 167 | 2.6 | 11.3 | 0.00 | 0.00 | 0.00 | 65 | 1006.3 |
| 20260505080801 | 57 | 191 | 3.5 | 7.0 | 0.00 | 0.00 | 0.00 | 63 | 1006.5 |
| 20260505080257 | 57 | 218 | 1.7 | 9.6 | 0.00 | 0.00 | 0.00 | 64 | 1006.4 |
| 20260505075752 | 57 | 212 | 2.6 | 11.3 | 0.00 | 0.00 | 0.00 | 63 | 1006.5 |
| 20260505075250 | 58 | 131 | 9.6 | 9.6 | 0.00 | 0.00 | 0.00 | 63 | 1006.4 |
| 20260505074747 | 58 | 348 | 6.1 | 8.7 | 0.00 | 0.00 | 0.00 | 62 | 1006.4 |
| 20260505074244 | 57 | 156 | 6.1 | 7.0 | 0.00 | 0.00 | 0.00 | 63 | 1006.4 |
| 20260505073742 | 56 | 147 | 3.5 | 6.1 | 0.00 | 0.00 | 0.00 | 65 | 1006.1 |
| 20260505073239 | 56 | 258 | 2.6 | 5.2 | 0.00 | 0.00 | 0.00 | 65 | 1006.4 |
| 20260505072736 | 56 | 198 | 3.5 | 15.6 | 0.00 | 0.00 | 0.00 | 66 | 1006.6 |
| 20260505072232 | 57 | 189 | 2.6 | 5.2 | 0.00 | 0.00 | 0.00 | 65 | 1006.5 |
| 20260505071727 | 57 | 228 | 2.6 | 9.6 | 0.00 | 0.00 | 0.00 | 66 | 1006.4 |
| 20260505071225 | 56 | 190 | 1.7 | 6.1 | 0.00 | 0.00 | 0.00 | 66 | 1006.5 |
| 20260505070722 | 56 | 163 | 3.5 | 5.2 | 0.00 | 0.00 | 0.00 | 69 | 1006.6 |
| 20260505070218 | 56 | 143 | 4.3 | 12.2 | 0.00 | 0.00 | 0.00 | 66 | 1006.6 |
| 20260505065714 | 56 | 86 | 1.7 | 3.5 | 0.00 | 0.00 | 0.00 | 67 | 1006.3 |
| 20260505065211 | 56 | 38 | 2.6 | 5.2 | 0.00 | 0.00 | 0.00 | 66 | 1006.4 |
| 20260505064708 | 56 | 301 | 1.7 | 5.2 | 0.00 | 0.00 | 0.00 | 67 | 1006.3 |
| 20260505064206 | 56 | 196 | 3.5 | 3.5 | 0.00 | 0.00 | 0.00 | 68 | 1006.2 |
| 20260505063704 | 56 | 143 | 0.9 | 3.5 | 0.00 | 0.00 | 0.00 | 68 | 1006.2 |
| 20260505063159 | 57 | 151 | 1.7 | 7.8 | 0.00 | 0.00 | 0.00 | 67 | 1006.2 |
| 20260505062655 | 57 | 203 | 4.3 | 6.1 | 0.00 | 0.00 | 0.00 | 66 | 1006.4 |
| 20260505062154 | 57 | 130 | 2.6 | 6.1 | 0.00 | 0.00 | 0.00 | 64 | 1006.2 |
| 20260505061650 | 58 | 210 | 0.0 | 9.6 | 0.00 | 0.00 | 0.00 | 64 | 1006.2 |
| 20260505061148 | 57 | 188 | 2.6 | 7.0 | 0.00 | 0.00 | 0.00 | 65 | 1006.1 |
| 20260505060645 | 58 | 214 | 0.9 | 10.4 | 0.00 | 0.00 | 0.00 | 65 | 1006.3 |
| 20260505060142 | 57 | 164 | 1.7 | 8.7 | 0.00 | 0.00 | 0.00 | 67 | 1006.4 |
| 20260505055637 | 57 | 147 | 0.9 | 8.7 | 0.00 | 0.00 | 0.00 | 64 | 1006.3 |
| 20260505055134 | 57 | 136 | 4.3 | 9.6 | 0.00 | 0.00 | 0.00 | 65 | 1006.3 |
| 20260505054632 | 57 | 144 | 2.6 | 4.3 | 0.00 | 0.00 | 0.00 | 68 | 1006.4 |
| 20260505054130 | 57 | 170 | 2.6 | 5.2 | 0.00 | 0.00 | 0.00 | 65 | 1006.1 |
| 20260505053627 | 56 | 174 | 2.6 | 4.3 | 0.00 | 0.00 | 0.00 | 66 | 1006.1 |
| 20260505053123 | 57 | 147 | 3.5 | 6.1 | 0.00 | 0.00 | 0.00 | 65 | 1006.3 |
| 20260505052620 | 57 | 171 | 2.6 | 4.3 | 0.00 | 0.00 | 0.00 | 67 | 1006.3 |
| 20260505052118 | 57 | 153 | 2.6 | 4.3 | 0.00 | 0.00 | 0.00 | 66 | 1006.1 |
| 20260505051614 | 57 | 180 | 4.3 | 7.8 | 0.00 | 0.00 | 0.00 | 65 | 1006.1 |
| 20260505051113 | 56 | 191 | 3.5 | 6.1 | 0.00 | 0.00 | 0.00 | 64 | 1006.0 |
| 20260505050610 | 56 | 94 | 2.6 | 5.2 | 0.00 | 0.00 | 0.00 | 66 | 1006.2 |
| 20260505050108 | 56 | 123 | 0.9 | 2.6 | 0.00 | 0.00 | 0.00 | 70 | 1005.9 |